Location: Key Biscayne
(25.6930°N, 80.1630°W)
Time: 11:55:15
(UTC-05:00)

CZ-2D R/B - Visible Passes

Search period start: 26 February 2017 00:00
Search period end: 08 March 2017 00:00
Orbit: 524 x 542 km, 97.5° (Epoch: 26 February)

Date Brightness Start Highest point End Pass type
(mag) Time Alt. Az. Time Alt. Az. Time Alt. Az.
26 Feb 5.1 19:24:00 15° NE 19:24:00 15° NE 19:25:05 10° NNE visible
27 Feb 5.2 19:14:14 13° NE 19:14:14 13° NE 19:15:05 10° NE visible
27 Feb 6.3 20:49:35 12° NW 20:49:35 12° NW 20:49:58 10° NW visible
28 Feb 5.4 19:04:29 10° NE 19:04:29 10° NE 19:04:39 10° NE visible
28 Feb 5.9 20:39:50 16° NW 20:39:50 16° NW 20:40:51 10° NW visible
01 Mar 5.5 20:30:05 21° NW 20:30:05 21° NW 20:31:36 10° NNW visible
02 Mar 4.9 20:20:20 28° NNW 20:20:20 28° NNW 20:22:16 10° NNW visible
03 Mar 4.4 20:10:35 34° NNW 20:10:35 34° NNW 20:12:51 10° NNW visible
04 Mar 4.0 20:00:51 39° N 20:00:51 39° N 20:03:22 10° N visible
05 Mar 3.9 19:51:06 39° NNE 19:51:06 39° NNE 19:53:49 10° N visible
06 Mar 4.0 19:41:22 33° NE 19:41:22 33° NE 19:44:12 10° N visible
07 Mar 4.2 19:31:38 26° ENE 19:31:38 26° ENE 19:34:29 10° NNE visible
07 Mar 6.6 21:06:59 10° WNW 21:06:59 10° WNW 21:07:04 10° WNW visible
